Time,TemperatureF,DewpointF,PressureIn,WindDirection,WindDirectionDegrees,WindSpeedMPH,WindSpeedGustMPH,Humidity,HourlyPrecipIn,Conditions,Clouds,dailyrainin,SoftwareType,DateUTC
2013-05-17 00:01:00,66.9,54.3,29.63,South,180,0.0,0.0,64,0.00,,,0.00,WUHU21623XXSP,2013-05-17 04:01:00,
2013-05-17 00:06:00,66.9,54.3,29.63,South,180,0.0,0.0,64,0.00,,,0.00,WUHU21623XXSP,2013-05-17 04:06:00,
2013-05-17 00:11:00,66.7,54.1,29.63,South,180,0.0,0.0,64,0.00,,,0.00,WUHU21623XXSP,2013-05-17 04:11:00,
2013-05-17 00:16:00,66.7,54.6,29.63,South,180,0.0,0.0,65,0.00,,,0.00,WUHU21623XXSP,2013-05-17 04:16:00,
2013-05-17 00:21:00,66.6,54.4,29.63,South,180,0.0,0.0,65,0.00,,,0.00,WUHU21623XXSP,2013-05-17 04:21:00,
2013-05-17 00:26:00,66.4,53.8,29.63,South,180,0.0,0.0,64,0.00,,,0.00,WUHU21623XXSP,2013-05-17 04:26:00,
2013-05-17 00:31:00,66.4,53.8,29.63,South,180,0.0,0.0,64,0.00,,,0.00,WUHU21623XXSP,2013-05-17 04:31:00,
2013-05-17 00:36:00,66.0,53.5,29.63,South,180,0.0,0.0,64,0.00,,,0.00,WUHU21623XXSP,2013-05-17 04:36:00,
2013-05-17 00:41:00,66.0,53.5,29.63,South,180,0.0,0.0,64,0.00,,,0.00,WUHU21623XXSP,2013-05-17 04:41:00,
2013-05-17 00:46:00,65.8,53.7,29.62,South,180,0.0,0.0,65,0.00,,,0.00,WUHU21623XXSP,2013-05-17 04:46:00,
2013-05-17 00:51:00,65.8,53.7,29.62,South,180,0.0,0.0,65,0.00,,,0.00,WUHU21623XXSP,2013-05-17 04:51:00,
2013-05-17 00:56:00,65.5,53.4,29.62,South,180,0.0,0.0,65,0.00,,,0.00,WUHU21623XXSP,2013-05-17 04:56:00,
2013-05-17 01:01:00,65.5,53.4,29.62,South,180,0.0,0.0,65,0.00,,,0.00,WUHU21623XXSP,2013-05-17 05:01:00,
2013-05-17 01:06:00,65.3,53.2,29.62,South,180,0.0,0.0,65,0.00,,,0.00,WUHU21623XXSP,2013-05-17 05:06:00,
2013-05-17 01:11:00,65.1,53.0,29.62,South,180,0.0,0.0,65,0.00,,,0.00,WUHU21623XXSP,2013-05-17 05:11:00,
2013-05-17 01:16:00,65.1,53.0,29.62,South,180,0.0,0.0,65,0.00,,,0.00,WUHU21623XXSP,2013-05-17 05:16:00,
2013-05-17 01:21:00,64.9,52.8,29.62,South,180,0.0,0.0,65,0.00,,,0.00,WUHU21623XXSP,2013-05-17 05:21:00,
2013-05-17 01:26:00,64.8,52.7,29.62,South,180,0.0,0.0,65,0.00,,,0.00,WUHU21623XXSP,2013-05-17 05:26:00,
2013-05-17 01:31:00,64.6,52.5,29.62,South,180,0.0,0.0,65,0.00,,,0.00,WUHU21623XXSP,2013-05-17 05:31:00,
2013-05-17 01:36:00,64.6,52.5,29.62,South,180,0.0,0.0,65,0.00,,,0.00,WUHU21623XXSP,2013-05-17 05:36:00,
2013-05-17 01:41:00,64.4,52.3,29.62,South,180,0.0,0.0,65,0.00,,,0.00,WUHU21623XXSP,2013-05-17 05:41:00,
2013-05-17 01:46:00,64.2,52.2,29.62,South,180,0.0,0.0,65,0.00,,,0.00,WUHU21623XXSP,2013-05-17 05:46:00,
2013-05-17 01:51:00,64.2,52.6,29.62,South,180,0.0,0.0,66,0.00,,,0.00,WUHU21623XXSP,2013-05-17 05:51:00,
2013-05-17 01:56:00,64.2,52.6,29.62,South,180,0.0,0.0,66,0.00,,,0.00,WUHU21623XXSP,2013-05-17 05:56:00,
2013-05-17 02:01:00,64.0,52.4,29.62,South,180,0.0,0.0,66,0.00,,,0.00,WUHU21623XXSP,2013-05-17 06:01:00,
2013-05-17 02:06:00,64.0,52.4,29.62,South,180,0.0,0.0,66,0.00,,,0.00,WUHU21623XXSP,2013-05-17 06:06:00,
2013-05-17 02:11:00,63.7,52.1,29.62,South,180,0.0,0.0,66,0.00,,,0.00,WUHU21623XXSP,2013-05-17 06:11:00,
2013-05-17 02:16:00,63.7,52.1,29.62,South,180,0.0,0.0,66,0.00,,,0.00,WUHU21623XXSP,2013-05-17 06:16:00,
2013-05-17 02:21:00,63.5,51.9,29.62,South,180,0.0,0.0,66,0.00,,,0.00,WUHU21623XXSP,2013-05-17 06:21:00,
2013-05-17 02:26:00,63.3,51.7,29.61,South,180,0.0,0.0,66,0.00,,,0.00,WUHU21623XXSP,2013-05-17 06:26:00,
2013-05-17 02:31:00,63.3,51.7,29.61,South,180,0.0,0.0,66,0.00,,,0.00,WUHU21623XXSP,2013-05-17 06:31:00,
2013-05-17 02:36:00,63.1,51.5,29.61,South,180,0.0,0.0,66,0.00,,,0.00,WUHU21623XXSP,2013-05-17 06:36:00,
2013-05-17 02:41:00,63.1,51.5,29.61,South,180,0.0,0.0,66,0.00,,,0.00,WUHU21623XXSP,2013-05-17 06:41:00,
2013-05-17 02:46:00,63.0,51.8,29.61,South,180,0.0,0.0,67,0.00,,,0.00,WUHU21623XXSP,2013-05-17 06:46:00,
2013-05-17 02:51:00,63.0,51.8,29.60,South,180,0.0,0.0,67,0.00,,,0.00,WUHU21623XXSP,2013-05-17 06:51:00,
2013-05-17 02:56:00,62.8,52.0,29.60,South,180,0.0,0.0,68,0.00,,,0.00,WUHU21623XXSP,2013-05-17 06:56:00,
2013-05-17 03:01:00,62.8,51.6,29.61,South,180,0.0,0.0,67,0.00,,,0.00,WUHU21623XXSP,2013-05-17 07:01:00,
2013-05-17 03:06:00,62.6,51.5,29.60,South,180,0.0,0.0,67,0.00,,,0.00,WUHU21623XXSP,2013-05-17 07:06:00,
2013-05-17 03:11:00,62.4,51.3,29.61,South,180,0.0,0.0,67,0.00,,,0.00,WUHU21623XXSP,2013-05-17 07:11:00,
2013-05-17 03:16:00,62.4,51.3,29.61,South,180,0.0,0.0,67,0.00,,,0.00,WUHU21623XXSP,2013-05-17 07:16:00,
2013-05-17 03:21:00,62.4,51.3,29.61,South,180,0.0,0.0,67,0.00,,,0.00,WUHU21623XXSP,2013-05-17 07:21:00,
2013-05-17 03:26:00,62.2,51.5,29.61,South,180,0.0,0.0,68,0.00,,,0.00,WUHU21623XXSP,2013-05-17 07:26:00,
2013-05-17 03:31:00,62.2,51.5,29.61,South,180,0.0,0.0,68,0.00,,,0.00,WUHU21623XXSP,2013-05-17 07:31:00,
2013-05-17 03:36:00,62.2,51.5,29.61,South,180,0.0,0.0,68,0.00,,,0.00,WUHU21623XXSP,2013-05-17 07:36:00,
2013-05-17 03:41:00,62.1,51.4,29.61,South,180,0.0,0.0,68,0.00,,,0.00,WUHU21623XXSP,2013-05-17 07:41:00,
2013-05-17 03:46:00,62.1,52.2,29.61,South,180,0.0,0.0,70,0.00,,,0.00,WUHU21623XXSP,2013-05-17 07:46:00,
2013-05-17 03:51:00,61.9,52.4,29.61,South,180,0.0,0.0,71,0.00,,,0.00,WUHU21623XXSP,2013-05-17 07:51:00,
2013-05-17 03:56:00,61.9,52.1,29.61,South,180,0.0,0.0,70,0.00,,,0.00,WUHU21623XXSP,2013-05-17 07:56:00,
2013-05-17 04:01:00,61.9,52.1,29.61,South,180,0.0,0.0,70,0.00,,,0.00,WUHU21623XXSP,2013-05-17 08:01:00,
2013-05-17 04:06:00,61.7,51.9,29.61,South,180,0.0,0.0,70,0.00,,,0.00,WUHU21623XXSP,2013-05-17 08:06:00,
2013-05-17 04:11:00,61.7,51.9,29.61,South,180,0.0,0.0,70,0.00,,,0.00,WUHU21623XXSP,2013-05-17 08:11:00,
2013-05-17 04:16:00,61.5,51.7,29.61,South,180,0.0,0.0,70,0.00,,,0.00,WUHU21623XXSP,2013-05-17 08:16:00,
2013-05-17 04:21:00,61.5,51.7,29.62,South,180,0.0,0.0,70,0.00,,,0.00,WUHU21623XXSP,2013-05-17 08:21:00,
2013-05-17 04:26:00,61.5,51.7,29.62,South,180,0.0,0.0,70,0.00,,,0.00,WUHU21623XXSP,2013-05-17 08:26:00,
2013-05-17 04:31:00,61.5,51.7,29.62,South,180,0.0,0.0,70,0.00,,,0.00,WUHU21623XXSP,2013-05-17 08:31:00,
2013-05-17 04:36:00,61.3,51.6,29.62,South,180,0.0,0.0,70,0.00,,,0.00,WUHU21623XXSP,2013-05-17 08:36:00,
2013-05-17 04:41:00,61.3,51.9,29.62,South,180,0.0,0.0,71,0.00,,,0.00,WUHU21623XXSP,2013-05-17 08:41:00,
2013-05-17 04:46:00,61.2,51.8,29.62,South,180,0.0,0.0,71,0.00,,,0.00,WUHU21623XXSP,2013-05-17 08:46:00,
2013-05-17 04:51:00,61.2,51.8,29.62,South,180,0.0,0.0,71,0.00,,,0.00,WUHU21623XXSP,2013-05-17 08:51:00,
2013-05-17 04:56:00,61.0,51.6,29.63,South,180,0.0,0.0,71,0.00,,,0.00,WUHU21623XXSP,2013-05-17 08:56:00,
2013-05-17 05:01:00,61.0,51.6,29.63,South,180,0.0,0.0,71,0.00,,,0.00,WUHU21623XXSP,2013-05-17 09:01:00,
2013-05-17 05:06:00,61.0,51.6,29.63,South,180,0.0,0.0,71,0.00,,,0.00,WUHU21623XXSP,2013-05-17 09:06:00,
2013-05-17 05:11:00,60.8,51.4,29.63,South,180,0.0,0.0,71,0.00,,,0.00,WUHU21623XXSP,2013-05-17 09:11:00,
2013-05-17 05:16:00,60.6,51.3,29.63,South,180,0.0,0.0,71,0.00,,,0.00,WUHU21623XXSP,2013-05-17 09:16:00,
2013-05-17 05:21:00,60.6,51.3,29.63,South,180,0.0,0.0,71,0.00,,,0.00,WUHU21623XXSP,2013-05-17 09:21:00,
2013-05-17 05:26:00,60.6,51.3,29.63,South,180,0.0,0.0,71,0.00,,,0.00,WUHU21623XXSP,2013-05-17 09:26:00,
2013-05-17 05:31:00,60.4,51.1,29.64,South,180,0.0,0.0,71,0.00,,,0.00,WUHU21623XXSP,2013-05-17 09:31:00,
2013-05-17 05:36:00,60.4,51.4,29.64,South,180,0.0,0.0,72,0.00,,,0.00,WUHU21623XXSP,2013-05-17 09:36:00,
2013-05-17 05:41:00,60.4,51.4,29.64,South,180,0.0,0.0,72,0.00,,,0.00,WUHU21623XXSP,2013-05-17 09:41:00,
2013-05-17 05:46:00,60.3,51.3,29.64,South,180,0.0,0.0,72,0.00,,,0.00,WUHU21623XXSP,2013-05-17 09:46:00,
2013-05-17 05:51:00,60.1,51.1,29.64,South,180,0.0,0.0,72,0.00,,,0.00,WUHU21623XXSP,2013-05-17 09:51:00,
2013-05-17 05:56:00,60.1,51.1,29.65,South,180,0.0,0.0,72,0.00,,,0.00,WUHU21623XXSP,2013-05-17 09:56:00,
2013-05-17 06:01:00,60.1,51.8,29.65,South,180,0.0,0.0,74,0.00,,,0.00,WUHU21623XXSP,2013-05-17 10:01:00,
2013-05-17 06:06:00,60.1,51.8,29.65,South,180,0.0,0.0,74,0.00,,,0.00,WUHU21623XXSP,2013-05-17 10:06:00,
2013-05-17 06:11:00,60.1,51.8,29.65,South,180,0.0,0.0,74,0.00,,,0.00,WUHU21623XXSP,2013-05-17 10:11:00,
2013-05-17 06:16:00,60.1,51.8,29.66,South,180,0.0,0.0,74,0.00,,,0.00,WUHU21623XXSP,2013-05-17 10:16:00,
2013-05-17 06:21:00,60.1,51.8,29.66,South,180,0.0,0.0,74,0.00,,,0.00,WUHU21623XXSP,2013-05-17 10:21:00,
2013-05-17 06:26:00,60.1,51.8,29.65,South,180,0.0,0.0,74,0.00,,,0.00,WUHU21623XXSP,2013-05-17 10:26:00,
2013-05-17 06:31:00,60.1,51.4,29.66,South,180,0.0,0.0,73,0.00,,,0.00,WUHU21623XXSP,2013-05-17 10:31:00,
2013-05-17 06:36:00,60.1,51.8,29.66,South,180,0.0,0.0,74,0.00,,,0.00,WUHU21623XXSP,2013-05-17 10:36:00,
2013-05-17 06:41:00,60.1,52.0,29.66,South,180,0.0,0.0,74,0.00,,,0.00,WUHU21623XXSP,2013-05-17 10:41:00,
2013-05-17 06:46:00,60.1,51.8,29.66,South,180,0.0,0.0,74,0.00,,,0.00,WUHU21623XXSP,2013-05-17 10:46:00,
2013-05-17 06:51:00,60.1,52.2,29.66,South,180,0.0,0.0,75,0.00,,,0.00,WUHU21623XXSP,2013-05-17 10:51:00,
2013-05-17 06:56:00,60.4,52.2,29.66,South,180,0.0,0.0,74,0.00,,,0.00,WUHU21623XXSP,2013-05-17 10:56:00,
2013-05-17 07:01:00,60.3,52.0,29.66,South,180,0.0,0.0,74,0.00,,,0.00,WUHU21623XXSP,2013-05-17 11:01:00,
2013-05-17 07:06:00,60.4,52.2,29.66,South,180,0.0,0.0,74,0.00,,,0.00,WUHU21623XXSP,2013-05-17 11:06:00,
2013-05-17 07:11:00,60.4,52.2,29.66,South,180,0.0,0.0,75,0.00,,,0.00,WUHU21623XXSP,2013-05-17 11:11:00,
2013-05-17 07:16:00,60.4,52.5,29.66,South,180,0.0,0.0,75,0.00,,,0.00,WUHU21623XXSP,2013-05-17 11:16:00,
2013-05-17 07:21:00,60.4,52.5,29.66,South,180,0.0,0.0,75,0.00,,,0.00,WUHU21623XXSP,2013-05-17 11:21:00,
2013-05-17 07:26:00,60.6,52.7,29.66,South,180,0.0,0.0,75,0.00,,,0.00,WUHU21623XXSP,2013-05-17 11:26:00,
2013-05-17 07:31:00,60.6,52.7,29.66,South,180,0.0,0.0,75,0.00,,,0.00,WUHU21623XXSP,2013-05-17 11:31:00,
2013-05-17 07:37:00,61.0,52.7,29.66,South,180,0.0,0.0,75,0.00,,,0.00,WUHU21623XXSP,2013-05-17 11:37:00,
2013-05-17 07:42:00,61.0,53.0,29.66,South,180,0.0,0.0,75,0.00,,,0.00,WUHU21623XXSP,2013-05-17 11:42:00,
2013-05-17 07:47:00,61.2,53.2,29.66,South,180,0.0,0.0,75,0.00,,,0.00,WUHU21623XXSP,2013-05-17 11:47:00,
2013-05-17 07:52:00,61.5,53.5,29.66,South,180,0.0,0.0,75,0.00,,,0.00,WUHU21623XXSP,2013-05-17 11:52:00,
2013-05-17 07:57:00,61.7,54.0,29.66,South,180,0.0,0.0,76,0.00,,,0.00,WUHU21623XXSP,2013-05-17 11:57:00,
2013-05-17 08:02:00,61.9,54.6,29.66,South,180,0.0,0.0,77,0.00,,,0.00,WUHU21623XXSP,2013-05-17 12:02:00,
2013-05-17 08:07:00,62.2,54.9,29.66,South,180,0.0,0.0,77,0.00,,,0.00,WUHU21623XXSP,2013-05-17 12:07:00,
2013-05-17 08:12:00,62.4,55.1,29.66,South,180,0.0,0.0,77,0.00,,,0.00,WUHU21623XXSP,2013-05-17 12:12:00,
2013-05-17 08:17:00,62.6,55.2,29.67,South,180,0.0,0.0,77,0.00,,,0.00,WUHU21623XXSP,2013-05-17 12:17:00,
2013-05-17 08:22:00,63.1,55.8,29.66,South,180,0.0,0.0,77,0.00,,,0.00,WUHU21623XXSP,2013-05-17 12:22:00,
2013-05-17 08:27:00,63.1,55.8,29.67,South,180,0.0,0.0,77,0.00,,,0.00,WUHU21623XXSP,2013-05-17 12:27:00,
2013-05-17 08:32:00,63.3,55.9,29.67,South,180,0.0,0.0,77,0.00,,,0.00,WUHU21623XXSP,2013-05-17 12:32:00,
2013-05-17 08:37:00,63.7,56.3,29.67,South,180,0.0,0.0,77,0.00,,,0.00,WUHU21623XXSP,2013-05-17 12:37:00,
2013-05-17 08:42:00,64.0,56.7,29.67,South,180,0.0,0.0,77,0.00,,,0.00,WUHU21623XXSP,2013-05-17 12:42:00,
2013-05-17 08:47:00,64.2,56.8,29.67,South,180,0.0,0.0,77,0.00,,,0.00,WUHU21623XXSP,2013-05-17 12:47:00,
2013-05-17 08:52:00,64.6,56.8,29.67,South,180,0.0,0.0,76,0.00,,,0.00,WUHU21623XXSP,2013-05-17 12:52:00,
2013-05-17 08:57:00,64.8,57.0,29.67,South,180,0.0,0.0,76,0.00,,,0.00,WUHU21623XXSP,2013-05-17 12:57:00,
2013-05-17 09:02:00,64.9,57.5,29.67,South,180,0.0,0.0,77,0.00,,,0.00,WUHU21623XXSP,2013-05-17 13:02:00,
2013-05-17 09:07:00,65.3,57.5,29.67,South,180,0.0,0.0,76,0.00,,,0.00,WUHU21623XXSP,2013-05-17 13:07:00,
2013-05-17 09:12:00,65.5,57.7,29.67,South,180,0.0,0.0,76,0.00,,,0.00,WUHU21623XXSP,2013-05-17 13:12:00,
2013-05-17 09:17:00,65.8,57.7,29.67,South,180,0.0,0.0,75,0.00,,,0.00,WUHU21623XXSP,2013-05-17 13:17:00,
2013-05-17 09:22:00,66.0,57.8,29.67,South,180,0.0,0.0,75,0.00,,,0.00,WUHU21623XXSP,2013-05-17 13:22:00,
2013-05-17 09:27:00,66.2,58.0,29.67,South,180,0.0,0.0,75,0.00,,,0.00,WUHU21623XXSP,2013-05-17 13:27:00,
2013-05-17 09:32:00,66.7,58.5,29.68,South,180,0.0,0.0,75,0.00,,,0.00,WUHU21623XXSP,2013-05-17 13:32:00,
2013-05-17 09:37:00,66.9,58.7,29.68,South,180,0.0,0.0,75,0.00,,,0.00,WUHU21623XXSP,2013-05-17 13:37:00,
2013-05-17 09:42:00,67.1,58.9,29.68,South,180,0.0,0.0,75,0.00,,,0.00,WUHU21623XXSP,2013-05-17 13:42:00,
2013-05-17 09:47:00,67.6,59.5,29.68,South,180,0.0,0.0,75,0.00,,,0.00,WUHU21623XXSP,2013-05-17 13:47:00,
2013-05-17 09:52:00,67.8,59.6,29.68,South,180,0.0,0.0,75,0.00,,,0.00,WUHU21623XXSP,2013-05-17 13:52:00,
2013-05-17 09:57:00,68.2,60.0,29.68,South,180,0.0,0.0,75,0.00,,,0.00,WUHU21623XXSP,2013-05-17 13:57:00,
2013-05-17 10:02:00,68.7,60.5,29.69,South,180,0.0,0.0,75,0.00,,,0.00,WUHU21623XXSP,2013-05-17 14:02:00,
2013-05-17 10:07:00,69.1,60.4,29.69,South,180,0.0,0.0,74,0.00,,,0.00,WUHU21623XXSP,2013-05-17 14:07:00,
2013-05-17 10:12:00,69.4,60.7,29.69,South,180,0.0,0.0,74,0.00,,,0.00,WUHU21623XXSP,2013-05-17 14:12:00,
2013-05-17 10:17:00,70.0,61.2,29.69,South,180,0.0,0.0,74,0.00,,,0.00,WUHU21623XXSP,2013-05-17 14:17:00,
2013-05-17 10:22:00,70.2,61.8,29.69,South,180,0.0,0.0,75,0.00,,,0.00,WUHU21623XXSP,2013-05-17 14:22:00,
2013-05-17 10:27:00,70.3,62.0,29.69,South,180,0.0,0.0,75,0.00,,,0.00,WUHU21623XXSP,2013-05-17 14:27:00,
2013-05-17 10:32:00,70.9,62.5,29.69,South,180,0.0,0.0,75,0.00,,,0.00,WUHU21623XXSP,2013-05-17 14:32:00,
2013-05-17 10:37:00,71.2,62.5,29.69,South,180,0.0,0.0,74,0.00,,,0.00,WUHU21623XXSP,2013-05-17 14:37:00,
2013-05-17 10:42:00,71.2,62.5,29.69,South,180,0.0,0.0,74,0.00,,,0.00,WUHU21623XXSP,2013-05-17 14:42:00,
2013-05-17 10:47:00,71.4,62.3,29.70,South,180,0.0,0.0,73,0.00,,,0.00,WUHU21623XXSP,2013-05-17 14:47:00,
2013-05-17 10:52:00,71.8,62.7,29.69,South,180,0.0,0.0,73,0.00,,,0.00,WUHU21623XXSP,2013-05-17 14:52:00,
2013-05-17 10:57:00,71.8,62.7,29.70,South,180,0.0,0.0,73,0.00,,,0.00,WUHU21623XXSP,2013-05-17 14:57:00,
2013-05-17 11:02:00,72.1,63.0,29.69,South,180,0.0,0.0,73,0.00,,,0.00,WUHU21623XXSP,2013-05-17 15:02:00,
2013-05-17 11:07:00,72.3,63.2,29.69,South,180,0.0,0.0,73,0.00,,,0.00,WUHU21623XXSP,2013-05-17 15:07:00,
2013-05-17 11:12:00,72.3,63.2,29.69,South,180,0.0,0.0,73,0.00,,,0.00,WUHU21623XXSP,2013-05-17 15:12:00,
2013-05-17 11:17:00,72.7,63.2,29.69,South,180,0.0,0.0,72,0.00,,,0.00,WUHU21623XXSP,2013-05-17 15:17:00,
2013-05-17 11:22:00,72.7,62.8,29.69,South,180,0.0,0.0,71,0.00,,,0.00,WUHU21623XXSP,2013-05-17 15:22:00,
2013-05-17 11:27:00,72.9,62.6,29.69,South,180,0.0,0.0,70,0.00,,,0.00,WUHU21623XXSP,2013-05-17 15:27:00,
2013-05-17 11:32:00,73.2,63.0,29.69,South,180,0.0,0.0,70,0.00,,,0.00,WUHU21623XXSP,2013-05-17 15:32:00,
2013-05-17 11:37:00,73.2,63.0,29.69,South,180,0.0,0.0,70,0.00,,,0.00,WUHU21623XXSP,2013-05-17 15:37:00,
2013-05-17 11:42:00,73.6,63.3,29.69,South,180,0.0,0.0,70,0.00,,,0.00,WUHU21623XXSP,2013-05-17 15:42:00,
2013-05-17 11:47:00,73.8,63.5,29.69,South,180,0.0,0.0,70,0.00,,,0.00,WUHU21623XXSP,2013-05-17 15:47:00,
2013-05-17 11:52:00,73.9,63.6,29.69,South,180,0.0,0.0,70,0.00,,,0.00,WUHU21623XXSP,2013-05-17 15:52:00,
2013-05-17 11:57:00,74.1,63.8,29.69,South,180,0.0,0.0,70,0.00,,,0.00,WUHU21623XXSP,2013-05-17 15:57:00,
2013-05-17 12:02:00,74.5,64.1,29.69,South,180,0.0,0.0,70,0.00,,,0.00,WUHU21623XXSP,2013-05-17 16:02:00,
2013-05-17 12:07:00,74.5,63.7,29.69,South,180,0.0,0.0,69,0.00,,,0.00,WUHU21623XXSP,2013-05-17 16:07:00,
2013-05-17 12:12:00,74.5,63.7,29.69,South,180,0.0,0.0,69,0.00,,,0.00,WUHU21623XXSP,2013-05-17 16:12:00,
2013-05-17 12:17:00,74.8,63.6,29.69,South,180,0.0,0.0,68,0.00,,,0.00,WUHU21623XXSP,2013-05-17 16:17:00,
2013-05-17 12:22:00,74.8,63.6,29.69,South,180,0.0,0.0,68,0.00,,,0.00,WUHU21623XXSP,2013-05-17 16:22:00,
2013-05-17 12:27:00,74.8,64.0,29.69,South,180,0.0,0.0,69,0.00,,,0.00,WUHU21623XXSP,2013-05-17 16:27:00,
2013-05-17 12:32:00,75.0,63.7,29.69,South,180,0.0,0.0,68,0.00,,,0.00,WUHU21623XXSP,2013-05-17 16:32:00,
2013-05-17 12:37:00,75.0,63.3,29.69,South,180,0.0,0.0,67,0.00,,,0.00,WUHU21623XXSP,2013-05-17 16:37:00,
2013-05-17 12:42:00,75.2,63.5,29.69,South,180,0.0,0.0,67,0.00,,,0.00,WUHU21623XXSP,2013-05-17 16:42:00,
2013-05-17 12:47:00,75.4,63.6,29.69,South,180,0.0,0.0,67,0.00,,,0.00,WUHU21623XXSP,2013-05-17 16:47:00,
2013-05-17 12:52:00,75.6,63.8,29.69,South,180,0.0,0.0,67,0.00,,,0.00,WUHU21623XXSP,2013-05-17 16:52:00,
2013-05-17 12:57:00,75.7,63.5,29.68,South,180,0.0,0.0,66,0.00,,,0.00,WUHU21623XXSP,2013-05-17 16:57:00,
2013-05-17 13:02:00,75.9,63.7,29.68,South,180,0.0,0.0,66,0.00,,,0.00,WUHU21623XXSP,2013-05-17 17:02:00,
2013-05-17 13:07:00,76.1,63.0,29.68,South,180,0.0,0.0,64,0.00,,,0.00,WUHU21623XXSP,2013-05-17 17:07:00,
2013-05-17 13:12:00,76.3,62.7,29.68,South,180,0.0,0.0,63,0.00,,,0.00,WUHU21623XXSP,2013-05-17 17:12:00,
2013-05-17 13:17:00,76.6,62.2,29.67,South,180,0.0,0.0,61,0.00,,,0.00,WUHU21623XXSP,2013-05-17 17:17:00,
2013-05-17 13:22:00,76.8,62.3,29.67,South,180,0.0,0.0,61,0.00,,,0.00,WUHU21623XXSP,2013-05-17 17:22:00,
2013-05-17 13:27:00,77.0,62.5,29.67,South,180,0.0,0.0,61,0.00,,,0.00,WUHU21623XXSP,2013-05-17 17:27:00,
2013-05-17 13:32:00,77.4,62.9,29.67,South,180,0.0,0.0,61,0.00,,,0.00,WUHU21623XXSP,2013-05-17 17:32:00,
2013-05-17 13:37:00,77.5,62.6,29.67,South,180,0.0,0.0,60,0.00,,,0.00,WUHU21623XXSP,2013-05-17 17:37:00,
2013-05-17 13:42:00,77.9,63.0,29.67,South,180,0.0,0.0,60,0.00,,,0.00,WUHU21623XXSP,2013-05-17 17:42:00,
2013-05-17 13:47:00,78.4,62.6,29.67,South,180,0.0,0.0,59,0.00,,,0.00,WUHU21623XXSP,2013-05-17 17:47:00,
2013-05-17 13:52:00,78.6,62.1,29.67,South,180,0.0,0.0,57,0.00,,,0.00,WUHU21623XXSP,2013-05-17 17:52:00,
2013-05-17 13:57:00,79.2,62.1,29.67,South,180,0.0,0.0,56,0.00,,,0.00,WUHU21623XXSP,2013-05-17 17:57:00,
2013-05-17 14:02:00,79.5,61.9,29.67,South,180,0.0,0.0,55,0.00,,,0.00,WUHU21623XXSP,2013-05-17 18:02:00,
2013-05-17 14:07:00,80.1,62.4,29.67,South,180,0.0,0.0,55,0.00,,,0.00,WUHU21623XXSP,2013-05-17 18:07:00,
2013-05-17 14:12:00,80.6,61.8,29.67,South,180,0.0,0.0,53,0.00,,,0.00,WUHU21623XXSP,2013-05-17 18:12:00,
2013-05-17 14:17:00,81.0,61.6,29.66,South,180,0.0,0.0,52,0.00,,,0.00,WUHU21623XXSP,2013-05-17 18:17:00,
2013-05-17 14:22:00,81.3,61.4,29.67,South,180,0.0,0.0,51,0.00,,,0.00,WUHU21623XXSP,2013-05-17 18:22:00,
2013-05-17 14:27:00,82.0,61.6,29.67,South,180,0.0,0.0,50,0.00,,,0.00,WUHU21623XXSP,2013-05-17 18:27:00,
2013-05-17 14:32:00,82.6,62.1,29.66,South,180,0.0,0.0,50,0.00,,,0.00,WUHU21623XXSP,2013-05-17 18:32:00,
2013-05-17 14:37:00,82.9,61.8,29.66,South,180,0.0,0.0,49,0.00,,,0.00,WUHU21623XXSP,2013-05-17 18:37:00,
2013-05-17 14:42:00,83.3,61.5,29.66,South,180,0.0,0.0,48,0.00,,,0.00,WUHU21623XXSP,2013-05-17 18:42:00,
2013-05-17 14:47:00,83.5,61.7,29.66,South,180,0.0,0.0,48,0.00,,,0.00,WUHU21623XXSP,2013-05-17 18:47:00,
2013-05-17 14:52:00,83.5,61.7,29.66,South,180,0.0,0.0,48,0.00,,,0.00,WUHU21623XXSP,2013-05-17 18:52:00,
2013-05-17 14:57:00,83.3,61.5,29.66,South,180,0.0,0.0,48,0.00,,,0.00,WUHU21623XXSP,2013-05-17 18:57:00,
2013-05-17 15:02:00,83.1,62.0,29.66,South,180,0.0,0.0,49,0.00,,,0.00,WUHU21623XXSP,2013-05-17 19:02:00,
2013-05-17 15:07:00,83.1,62.6,29.65,South,180,0.0,0.0,50,0.00,,,0.00,WUHU21623XXSP,2013-05-17 19:07:00,
2013-05-17 15:12:00,83.1,61.4,29.65,South,180,0.0,0.0,48,0.00,,,0.00,WUHU21623XXSP,2013-05-17 19:12:00,
2013-05-17 15:17:00,82.9,60.6,29.65,WSW,247,0.0,0.0,47,0.00,,,0.00,WUHU21623XXSP,2013-05-17 19:17:00,
2013-05-17 15:22:00,82.8,59.8,29.65,WSW,247,0.0,0.0,46,0.00,,,0.00,WUHU21623XXSP,2013-05-17 19:22:00,
2013-05-17 15:27:00,82.4,60.0,29.65,WSW,247,0.0,0.0,47,0.00,,,0.00,WUHU21623XXSP,2013-05-17 19:27:00,
2013-05-17 15:32:00,82.2,60.5,29.65,WSW,247,0.0,0.0,48,0.00,,,0.00,WUHU21623XXSP,2013-05-17 19:32:00,
2013-05-17 15:37:00,82.2,61.1,29.65,WSW,247,0.0,0.0,48,0.00,,,0.00,WUHU21623XXSP,2013-05-17 19:37:00,
2013-05-17 15:42:00,82.0,60.3,29.65,WSW,247,0.0,0.0,48,0.00,,,0.00,WUHU21623XXSP,2013-05-17 19:42:00,
2013-05-17 15:47:00,81.7,59.4,29.64,WSW,247,0.0,0.0,47,0.00,,,0.00,WUHU21623XXSP,2013-05-17 19:47:00,
2013-05-17 15:52:00,81.7,58.8,29.64,WSW,247,0.0,0.0,46,0.00,,,0.00,WUHU21623XXSP,2013-05-17 19:52:00,
2013-05-17 15:57:00,81.3,58.5,29.64,WSW,247,0.0,0.0,46,0.00,,,0.00,WUHU21623XXSP,2013-05-17 19:57:00,
2013-05-17 16:02:00,81.1,58.3,29.64,WSW,247,0.0,0.0,46,0.00,,,0.00,WUHU21623XXSP,2013-05-17 20:02:00,
2013-05-17 16:07:00,81.1,58.3,29.64,WSW,247,0.0,0.0,46,0.00,,,0.00,WUHU21623XXSP,2013-05-17 20:07:00,
2013-05-17 16:12:00,81.1,58.3,29.63,SW,225,0.0,0.0,46,0.00,,,0.00,WUHU21623XXSP,2013-05-17 20:12:00,
2013-05-17 16:17:00,81.1,58.3,29.63,SW,225,0.0,0.0,46,0.00,,,0.00,WUHU21623XXSP,2013-05-17 20:17:00,
2013-05-17 16:22:00,81.1,58.3,29.63,SW,225,0.0,0.0,46,0.00,,,0.00,WUHU21623XXSP,2013-05-17 20:22:00,
2013-05-17 16:27:00,81.1,58.3,29.63,SW,225,0.0,0.0,46,0.00,,,0.00,WUHU21623XXSP,2013-05-17 20:27:00,
2013-05-17 16:32:00,81.1,58.3,29.63,SW,225,0.0,0.0,46,0.00,,,0.00,WUHU21623XXSP,2013-05-17 20:32:00,
2013-05-17 16:37:00,81.1,58.9,29.63,WSW,247,0.0,0.0,47,0.00,,,0.00,WUHU21623XXSP,2013-05-17 20:37:00,
2013-05-17 16:42:00,81.1,58.3,29.63,WSW,247,0.0,0.0,46,0.00,,,0.00,WUHU21623XXSP,2013-05-17 20:42:00,
2013-05-17 16:47:00,81.0,58.1,29.63,SW,225,0.0,0.0,46,0.00,,,0.00,WUHU21623XXSP,2013-05-17 20:47:00,
2013-05-17 16:52:00,81.1,58.3,29.63,SW,225,0.0,0.0,47,0.00,,,0.00,WUHU21623XXSP,2013-05-17 20:52:00,
2013-05-17 16:57:00,81.3,59.1,29.62,SW,225,0.0,0.0,47,0.00,,,0.00,WUHU21623XXSP,2013-05-17 20:57:00,
2013-05-17 17:02:00,81.3,58.5,29.62,WSW,247,0.0,0.0,46,0.00,,,0.00,WUHU21623XXSP,2013-05-17 21:02:00,
2013-05-17 17:07:00,81.3,58.5,29.62,WSW,247,0.0,0.0,46,0.00,,,0.00,WUHU21623XXSP,2013-05-17 21:07:00,
2013-05-17 17:12:00,81.3,59.1,29.62,WSW,247,0.0,0.0,47,0.00,,,0.00,WUHU21623XXSP,2013-05-17 21:12:00,
2013-05-17 17:17:00,81.7,60.0,29.62,WSW,247,0.0,0.0,48,0.00,,,0.00,WUHU21623XXSP,2013-05-17 21:17:00,
2013-05-17 17:23:00,81.7,59.4,29.62,WSW,247,0.0,0.0,47,0.00,,,0.00,WUHU21623XXSP,2013-05-17 21:23:00,
2013-05-17 17:28:00,81.9,60.2,29.62,WSW,247,0.0,0.0,48,0.00,,,0.00,WUHU21623XXSP,2013-05-17 21:28:00,
2013-05-17 17:33:00,82.0,60.3,29.62,SSW,202,0.0,0.0,48,0.00,,,0.00,WUHU21623XXSP,2013-05-17 21:33:00,
2013-05-17 17:38:00,82.0,60.3,29.62,SSW,202,0.0,0.0,48,0.00,,,0.00,WUHU21623XXSP,2013-05-17 21:38:00,
2013-05-17 17:43:00,81.9,59.6,29.62,SSW,202,0.0,0.0,47,0.00,,,0.00,WUHU21623XXSP,2013-05-17 21:43:00,
2013-05-17 17:48:00,81.5,59.2,29.63,SSW,202,0.0,0.0,47,0.00,,,0.00,WUHU21623XXSP,2013-05-17 21:48:00,
2013-05-17 17:53:00,81.3,59.1,29.62,SSW,202,0.0,0.0,47,0.00,,,0.00,WUHU21623XXSP,2013-05-17 21:53:00,
2013-05-17 17:58:00,81.1,59.5,29.62,SSW,202,0.0,0.0,48,0.00,,,0.00,WUHU21623XXSP,2013-05-17 21:58:00,
2013-05-17 18:03:00,80.8,59.2,29.62,SSW,202,0.0,0.0,48,0.00,,,0.00,WUHU21623XXSP,2013-05-17 22:03:00,
2013-05-17 18:08:00,80.6,59.0,29.63,SW,225,0.0,0.0,49,0.00,,,0.00,WUHU21623XXSP,2013-05-17 22:08:00,
2013-05-17 18:13:00,80.2,58.7,29.63,SSW,202,0.0,0.0,48,0.00,,,0.00,WUHU21623XXSP,2013-05-17 22:13:00,
2013-05-17 18:18:00,80.1,59.2,29.63,SSW,202,0.0,0.0,49,0.00,,,0.00,WUHU21623XXSP,2013-05-17 22:18:00,
2013-05-17 18:23:00,79.9,59.0,29.63,SSW,202,0.0,0.0,49,0.00,,,0.00,WUHU21623XXSP,2013-05-17 22:23:00,
2013-05-17 18:28:00,79.7,59.5,29.63,SSW,202,0.0,0.0,50,0.00,,,0.00,WUHU21623XXSP,2013-05-17 22:28:00,
2013-05-17 18:33:00,79.7,59.5,29.63,SSW,202,0.0,0.0,50,0.00,,,0.00,WUHU21623XXSP,2013-05-17 22:33:00,
2013-05-17 18:38:00,79.5,59.8,29.62,WSW,247,0.0,0.0,51,0.00,,,0.00,WUHU21623XXSP,2013-05-17 22:38:00,
2013-05-17 18:43:00,79.3,60.2,29.62,SSW,202,0.0,0.0,52,0.00,,,0.00,WUHU21623XXSP,2013-05-17 22:43:00,
2013-05-17 18:48:00,79.2,60.0,29.62,SSW,202,0.0,0.0,52,0.00,,,0.00,WUHU21623XXSP,2013-05-17 22:48:00,
2013-05-17 18:53:00,79.2,60.0,29.62,SSW,202,0.0,0.0,52,0.00,,,0.00,WUHU21623XXSP,2013-05-17 22:53:00,
2013-05-17 18:58:00,79.2,60.0,29.61,SSW,202,0.0,0.0,52,0.00,,,0.00,WUHU21623XXSP,2013-05-17 22:58:00,
2013-05-17 19:03:00,79.0,60.4,29.62,SSW,202,0.0,0.0,53,0.00,,,0.00,WUHU21623XXSP,2013-05-17 23:03:00,
2013-05-17 19:08:00,79.0,60.4,29.62,SSW,202,0.0,0.0,53,0.00,,,0.00,WUHU21623XXSP,2013-05-17 23:08:00,
2013-05-17 19:13:00,78.6,60.5,29.62,SSW,202,0.0,0.0,54,0.00,,,0.00,WUHU21623XXSP,2013-05-17 23:13:00,
2013-05-17 19:18:00,78.6,60.0,29.62,SSW,202,0.0,0.0,53,0.00,,,0.00,WUHU21623XXSP,2013-05-17 23:18:00,
2013-05-17 19:23:00,78.6,60.0,29.62,SSW,202,0.0,0.0,53,0.00,,,0.00,WUHU21623XXSP,2013-05-17 23:23:00,
2013-05-17 19:28:00,78.4,59.9,29.62,SSW,202,0.0,0.0,53,0.00,,,0.00,WUHU21623XXSP,2013-05-17 23:28:00,
2013-05-17 19:33:00,78.1,59.5,29.62,SSW,202,0.0,0.0,53,0.00,,,0.00,WUHU21623XXSP,2013-05-17 23:33:00,
2013-05-17 19:38:00,77.9,59.4,29.62,SSW,202,0.0,0.0,53,0.00,,,0.00,WUHU21623XXSP,2013-05-17 23:38:00,
2013-05-17 19:43:00,77.7,59.2,29.62,SSW,202,0.0,0.0,53,0.00,,,0.00,WUHU21623XXSP,2013-05-17 23:43:00,
2013-05-17 19:48:00,77.5,59.5,29.62,SSW,202,0.0,0.0,54,0.00,,,0.00,WUHU21623XXSP,2013-05-17 23:48:00,
2013-05-17 19:53:00,77.4,59.4,29.61,SSW,202,0.0,0.0,54,0.00,,,0.00,WUHU21623XXSP,2013-05-17 23:53:00,
2013-05-17 19:58:00,77.2,59.2,29.61,SSW,202,0.0,0.0,54,0.00,,,0.00,WUHU21623XXSP,2013-05-17 23:58:00,
2013-05-17 20:03:00,76.8,58.9,29.62,SSW,202,0.0,0.0,54,0.00,,,0.00,WUHU21623XXSP,2013-05-18 00:03:00,
2013-05-17 20:08:00,76.6,58.7,29.62,SSW,202,0.0,0.0,54,0.00,,,0.00,WUHU21623XXSP,2013-05-18 00:08:00,
2013-05-17 20:13:00,76.5,58.5,29.62,SSW,202,0.0,0.0,54,0.00,,,0.00,WUHU21623XXSP,2013-05-18 00:13:00,
2013-05-17 20:18:00,76.3,58.4,29.62,SSW,202,0.0,0.0,54,0.00,,,0.00,WUHU21623XXSP,2013-05-18 00:18:00,
2013-05-17 20:23:00,76.1,58.7,29.62,SSW,202,0.0,0.0,55,0.00,,,0.00,WUHU21623XXSP,2013-05-18 00:23:00,
2013-05-17 20:28:00,75.9,58.6,29.63,SSW,202,0.0,0.0,55,0.00,,,0.00,WUHU21623XXSP,2013-05-18 00:28:00,
2013-05-17 20:33:00,75.7,58.4,29.62,SSW,202,0.0,0.0,55,0.00,,,0.00,WUHU21623XXSP,2013-05-18 00:33:00,
2013-05-17 20:38:00,75.6,57.7,29.63,SSW,202,0.0,0.0,54,0.00,,,0.00,WUHU21623XXSP,2013-05-18 00:38:00,
2013-05-17 20:43:00,75.4,57.6,29.62,SSW,202,0.0,0.0,54,0.00,,,0.00,WUHU21623XXSP,2013-05-18 00:43:00,
2013-05-17 20:48:00,75.4,57.6,29.62,SSW,202,0.0,0.0,54,0.00,,,0.00,WUHU21623XXSP,2013-05-18 00:48:00,
2013-05-17 20:53:00,75.0,57.7,29.62,SSW,202,0.0,0.0,55,0.00,,,0.00,WUHU21623XXSP,2013-05-18 00:53:00,
2013-05-17 20:58:00,75.0,57.7,29.62,SSW,202,0.0,0.0,55,0.00,,,0.00,WUHU21623XXSP,2013-05-18 00:58:00,
2013-05-17 21:03:00,74.8,57.6,29.62,SSW,202,0.0,0.0,55,0.00,,,0.00,WUHU21623XXSP,2013-05-18 01:03:00,
2013-05-17 21:08:00,74.5,57.7,29.62,SSW,202,0.0,0.0,56,0.00,,,0.00,WUHU21623XXSP,2013-05-18 01:08:00,
2013-05-17 21:13:00,74.5,57.7,29.63,SSW,202,0.0,0.0,56,0.00,,,0.00,WUHU21623XXSP,2013-05-18 01:13:00,
2013-05-17 21:18:00,74.3,57.5,29.63,SSW,202,0.0,0.0,56,0.00,,,0.00,WUHU21623XXSP,2013-05-18 01:18:00,
2013-05-17 21:23:00,74.1,57.8,29.63,SSW,202,0.0,0.0,57,0.00,,,0.00,WUHU21623XXSP,2013-05-18 01:23:00,
2013-05-17 21:28:00,73.9,57.7,29.63,SSW,202,0.0,0.0,57,0.00,,,0.00,WUHU21623XXSP,2013-05-18 01:28:00,
2013-05-17 21:33:00,73.9,57.7,29.63,SSW,202,0.0,0.0,57,0.00,,,0.00,WUHU21623XXSP,2013-05-18 01:33:00,
2013-05-17 21:38:00,73.8,57.5,29.63,SSW,202,0.0,0.0,57,0.00,,,0.00,WUHU21623XXSP,2013-05-18 01:38:00,
2013-05-17 21:43:00,73.8,58.0,29.63,SSW,202,0.0,0.0,58,0.00,,,0.00,WUHU21623XXSP,2013-05-18 01:43:00,
2013-05-17 21:48:00,73.6,57.8,29.63,SSW,202,0.0,0.0,58,0.00,,,0.00,WUHU21623XXSP,2013-05-18 01:48:00,
2013-05-17 21:53:00,73.4,57.6,29.63,SSW,202,0.0,0.0,58,0.00,,,0.00,WUHU21623XXSP,2013-05-18 01:53:00,
2013-05-17 21:58:00,73.2,57.5,29.63,SSW,202,0.0,0.0,58,0.00,,,0.00,WUHU21623XXSP,2013-05-18 01:58:00,
2013-05-17 22:03:00,73.2,57.5,29.64,SSW,202,0.0,0.0,58,0.00,,,0.00,WUHU21623XXSP,2013-05-18 02:03:00,
2013-05-17 22:08:00,73.0,57.8,29.64,SSW,202,0.0,0.0,59,0.00,,,0.00,WUHU21623XXSP,2013-05-18 02:08:00,
2013-05-17 22:13:00,73.0,57.8,29.65,SSW,202,0.0,0.0,59,0.00,,,0.00,WUHU21623XXSP,2013-05-18 02:13:00,
2013-05-17 22:18:00,73.0,57.8,29.65,SSW,202,0.0,0.0,59,0.00,,,0.00,WUHU21623XXSP,2013-05-18 02:18:00,
2013-05-17 22:23:00,72.9,57.7,29.66,SSW,202,0.0,0.0,59,0.00,,,0.00,WUHU21623XXSP,2013-05-18 02:23:00,
2013-05-17 22:28:00,72.7,58.0,29.66,SSW,202,0.0,0.0,60,0.00,,,0.00,WUHU21623XXSP,2013-05-18 02:28:00,
2013-05-17 22:33:00,72.7,58.4,29.66,SSW,202,0.0,0.0,61,0.00,,,0.00,WUHU21623XXSP,2013-05-18 02:33:00,
2013-05-17 22:38:00,72.5,58.7,29.66,SSW,202,0.0,0.0,62,0.00,,,0.00,WUHU21623XXSP,2013-05-18 02:38:00,
2013-05-17 22:43:00,72.3,58.5,29.66,SSW,202,0.0,0.0,62,0.00,,,0.00,WUHU21623XXSP,2013-05-18 02:43:00,
2013-05-17 22:48:00,72.1,58.8,29.66,SSW,202,0.0,0.0,63,0.00,,,0.00,WUHU21623XXSP,2013-05-18 02:48:00,
2013-05-17 22:53:00,71.8,59.8,29.66,SSW,202,0.0,0.0,66,0.02,,,0.00,WUHU21623XXSP,2013-05-18 02:53:00,
2013-05-17 22:58:00,71.6,60.5,29.66,SSW,202,0.0,0.0,68,0.02,,,0.02,WUHU21623XXSP,2013-05-18 02:58:00,
2013-05-17 23:03:00,71.2,61.0,29.67,SSW,202,0.0,0.0,70,0.02,,,0.02,WUHU21623XXSP,2013-05-18 03:03:00,
2013-05-17 23:08:00,71.2,61.0,29.67,SSW,202,0.0,0.0,70,0.02,,,0.02,WUHU21623XXSP,2013-05-18 03:08:00,
2013-05-17 23:13:00,70.9,60.8,29.67,SSW,202,0.0,0.0,70,0.04,,,0.02,WUHU21623XXSP,2013-05-18 03:13:00,
2013-05-17 23:18:00,70.5,60.4,29.67,SSW,202,0.0,0.0,71,0.04,,,0.04,WUHU21623XXSP,2013-05-18 03:18:00,
2013-05-17 23:23:00,70.3,60.5,29.67,SSW,202,0.0,0.0,71,0.04,,,0.04,WUHU21623XXSP,2013-05-18 03:23:00,
2013-05-17 23:28:00,70.2,60.3,29.67,SSW,202,0.0,0.0,71,0.04,,,0.04,WUHU21623XXSP,2013-05-18 03:28:00,
2013-05-17 23:33:00,70.0,60.5,29.67,SSW,202,0.0,0.0,73,0.04,,,0.04,WUHU21623XXSP,2013-05-18 03:33:00,
2013-05-17 23:38:00,70.0,60.5,29.67,SSW,202,0.0,0.0,73,0.04,,,0.04,WUHU21623XXSP,2013-05-18 03:38:00,
2013-05-17 23:43:00,69.6,60.5,29.66,SSW,202,0.0,0.0,73,0.04,,,0.04,WUHU21623XXSP,2013-05-18 03:43:00,
2013-05-17 23:48:00,69.6,60.9,29.67,SSW,202,0.0,0.0,74,0.04,,,0.04,WUHU21623XXSP,2013-05-18 03:48:00,
2013-05-17 23:53:00,69.6,61.3,29.67,SSW,202,0.0,0.0,75,0.02,,,0.04,WUHU21623XXSP,2013-05-18 03:53:00,
2013-05-17 23:58:00,69.4,61.1,29.67,SSW,202,0.0,0.0,75,0.02,,,0.04,WUHU21623XXSP,2013-05-18 03:58:00,